Fresno, CA

3:31 AM PDT on August 19, 2017 (GMT -0700)
Fresno Yosemite International

Weather History for KFAT - November, 2012

Change the Weather History Date:

Friday, November 30, 2012

  Actual Average Record
Temperature  
Mean Temperature 61 °F 49 °F  
Max Temperature 64 °F 59 °F 77 °F (1924)
Min Temperature 57 °F 40 °F 29 °F (1906)
Degree Days  
Heating Degree Days 4    
Month to date heating degree days 205  
Since 1 July heating degree days 243  
Cooling Degree Days 0    
Month to date cooling degree days 11  
Year to date cooling degree days 2644  
Growing Degree Days 10 (Base 50)    
Moisture  
Dew Point 55 °F    
Average Humidity 83    
Maximum Humidity 93    
Minimum Humidity 72    
Precipitation  
Precipitation 0.62 in 0.04 in 0.62 in (2012)
Month to date precipitation 1.11 1.07  
Year to date precipitation 7.94 9.73  
Since 1 July precipitation 1.36  
Snow  
Snow 0.00 in - - ()
Month to date snowfall 0.0  
Since 1 July snowfall 0.0  
Since 1 September snowfall 0.0  
Snow Depth 0.00 in    
Sea Level Pressure  
Sea Level Pressure 30.03 in    
Wind  
Wind Speed 8 mph (ESE)    
Max Wind Speed 17 mph    
Max Gust Speed -    
Visibility 8 miles    
Events Rain    
T = Trace of Precipitation, MM = Missing Value Source: NWS Daily Summary

Daily Weather History Graph

Daily Weather History Graph

Search for Another Location

Airport or City:

Trip Planner

Search our weather history database for the weather conditions in past years. The results will help you decide how hot, cold, wet, or windy it might be!

Date:

Astronomy

Nov. 30, 2012 Rise Set
Actual Time 6:52 AM PST 4:42 PM PST
Civil Twilight 6:24 AM PST 5:11 PM PST
Nautical Twilight 5:52 AM PST 5:43 PM PST
Astronomical Twilight 5:20 AM PST 6:14 PM PST
Moon 6:41 PM PST (11/30) 8:28 AM PST (11/30)
Length of Visible Light 10h 47m
Length of Day
9h 50m
Waning Gibbous, 96% of the Moon is Illuminated
Nov 30
Waning Gibbous
Dec 6
Last Quarter
Dec 13
New
Dec 19
First Quarter
Dec 28
Full

Hourly Weather History & Observations

Time (PST) Temp. Dew Point Humidity Pressure Visibility Wind Dir Wind Speed Gust Speed Precip Events Conditions
12:53 AM 62.1 °F 54.0 °F 75% 30.05 in 10.0 mi ESE 6.9 mph - 0.00 in   Overcast
1:53 AM 63.0 °F 53.1 °F 70% 30.04 in 10.0 mi East 10.4 mph - 0.01 in   Overcast
2:53 AM 61.0 °F 53.1 °F 75% 30.03 in 10.0 mi SE 9.2 mph - 0.00 in Rain Light Rain
3:53 AM 60.1 °F 54.0 °F 80% 30.03 in 10.0 mi ESE 5.8 mph - 0.01 in Rain Light Rain
4:53 AM 60.1 °F 53.1 °F 78% 30.01 in 10.0 mi SE 9.2 mph - 0.02 in Rain Light Rain
5:53 AM 63.0 °F 53.1 °F 70% 29.99 in 10.0 mi ESE 10.4 mph - 0.01 in Rain Light Rain
6:53 AM 62.1 °F 54.0 °F 75% 29.99 in 7.0 mi SE 6.9 mph - 0.02 in Rain Light Rain
7:53 AM 59.0 °F 53.1 °F 81% 30.00 in 6.0 mi ENE 8.1 mph - 0.11 in Rain Light Rain
8:53 AM 59.0 °F 52.0 °F 78% 30.01 in 10.0 mi NE 4.6 mph - 0.02 in   Overcast
9:53 AM 59.0 °F 53.1 °F 81% 30.01 in 10.0 mi Calm Calm - N/A   Overcast
10:53 AM 60.1 °F 54.0 °F 80% 30.01 in 10.0 mi ESE 5.8 mph - N/A   Overcast
11:53 AM 61.0 °F 55.0 °F 81% 29.98 in 10.0 mi East 6.9 mph - N/A   Overcast
12:53 PM 62.1 °F 55.0 °F 78% 29.97 in 10.0 mi SE 16.1 mph - N/A   Overcast
1:53 PM 63.0 °F 55.9 °F 78% 30.00 in 3.0 mi South 13.8 mph - 0.08 in Rain Rain
2:05 PM 62.6 °F 57.2 °F 82% 30.04 in 1.5 mi WSW 8.1 mph - 0.02 in Rain Light Rain
2:16 PM 60.8 °F 57.2 °F 88% 30.02 in 1.5 mi Calm Calm - 0.14 in Rain Heavy Rain
2:27 PM 60.8 °F 57.2 °F 88% 30.03 in 1.5 mi Variable 5.8 mph - 0.19 in Rain Rain
2:35 PM 60.8 °F 57.2 °F 88% 30.03 in 3.0 mi ENE 5.8 mph - 0.20 in Rain Light Rain
2:38 PM 60.8 °F 57.2 °F 88% 30.04 in 3.0 mi ENE 4.6 mph - 0.20 in Rain Light Rain
2:53 PM 60.1 °F 57.0 °F 90% 30.03 in 3.0 mi ENE 5.8 mph - 0.21 in Rain Rain
3:01 PM 60.8 °F 57.2 °F 88% 30.02 in 3.0 mi ENE 9.2 mph - 0.03 in Rain Rain
3:53 PM 59.0 °F 57.0 °F 93% 30.02 in 7.0 mi East 9.2 mph - 0.11 in Rain Light Rain
4:53 PM 60.1 °F 55.9 °F 86% 30.04 in 10.0 mi East 6.9 mph - 0.02 in Rain Light Rain
5:53 PM 61.0 °F 55.9 °F 83% 30.04 in 10.0 mi East 10.4 mph - 0.00 in   Mostly Cloudy
6:53 PM 61.0 °F 55.0 °F 81% 30.06 in 10.0 mi ESE 10.4 mph - 0.00 in Rain Light Rain
7:53 PM 60.1 °F 55.0 °F 83% 30.06 in 10.0 mi SE 12.7 mph - 0.00 in   Scattered Clouds
8:53 PM 59.0 °F 55.0 °F 87% 30.09 in 10.0 mi ESE 9.2 mph - N/A   Scattered Clouds
9:53 PM 59.0 °F 54.0 °F 83% 30.10 in 10.0 mi East 6.9 mph - N/A   Scattered Clouds
10:53 PM 60.1 °F 54.0 °F 80% 30.11 in 10.0 mi ESE 6.9 mph - N/A   Mostly Cloudy
11:53 PM 59.0 °F 54.0 °F 83% 30.11 in 10.0 mi ESE 6.9 mph - N/A   Mostly Cloudy